�������l�o���
Date,Time,MP-1(��Sv/h),MP-2(��Sv/h),MP-3(��Sv/h),MP-4(��Sv/h),MP-5(��Sv/h),MP-6(��Sv/h),MP-7(��Sv/h),MP-8(��Sv/h),����,����(m/s),���J
2022/07/19,00:00,0.594,0.844,0.536,1.004,0.713,0.342,0.591,0.557,�k�k��,4.6,��
2022/07/19,00:10,0.593,0.841,0.539,1.004,0.714,0.344,0.590,0.556,�k�k��,3.8,��
2022/07/19,00:20,0.595,0.844,0.537,1.005,0.716,0.344,0.590,0.557,�k�k��,3.5,��
2022/07/19,00:30,0.595,0.843,0.539,1.006,0.714,0.344,0.591,0.557,�k��,4.0,��
2022/07/19,00:40,0.594,0.844,0.539,1.004,0.714,0.344,0.590,0.557,�k��,3.3,��
2022/07/19,00:50,0.593,0.843,0.538,1.007,0.714,0.344,0.590,0.558,�k�k��,2.8,��
2022/07/19,01:00,0.594,0.841,0.540,1.004,0.715,0.344,0.590,0.558,�k��,1.4,��
2022/07/19,01:10,0.594,0.843,0.538,1.006,0.715,0.343,0.591,0.558,�k��,1.9,��
2022/07/19,01:20,0.595,0.844,0.539,1.004,0.715,0.344,0.589,0.558,���k��,1.2,��
2022/07/19,01:30,0.596,0.843,0.537,1.005,0.714,0.345,0.592,0.556,�k��,0.9,��
2022/07/19,01:40,0.594,0.844,0.539,1.005,0.715,0.345,0.590,0.560,-,CALM,��
2022/07/19,01:50,0.595,0.844,0.539,1.006,0.715,0.344,0.588,0.559,�쐼,1.2,��
2022/07/19,02:00,0.593,0.844,0.540,1.006,0.714,0.345,0.589,0.556,�쐼,1.2,��
2022/07/19,02:10,0.596,0.843,0.538,1.005,0.715,0.347,0.590,0.557,��,1.9,��
2022/07/19,02:20,0.594,0.843,0.538,1.004,0.714,0.345,0.590,0.558,��쓌,2.0,��
2022/07/19,02:30,0.595,0.842,0.539,1.004,0.714,0.344,0.590,0.558,��,1.4,��
2022/07/19,02:40,0.593,0.846,0.539,1.005,0.715,0.343,0.589,0.559,��,0.9,��
2022/07/19,02:50,0.595,0.844,0.540,1.004,0.715,0.345,0.590,0.557,��,1.9,��
2022/07/19,03:00,0.593,0.844,0.540,1.006,0.714,0.345,0.589,0.558,��,1.7,��
2022/07/19,03:10,0.595,0.843,0.540,1.006,0.716,0.345,0.590,0.558,��,2.2,��
2022/07/19,03:20,0.595,0.843,0.541,1.004,0.715,0.345,0.590,0.558,��,2.0,��
2022/07/19,03:30,0.594,0.844,0.539,1.003,0.716,0.345,0.590,0.558,��,1.7,��
2022/07/19,03:40,0.595,0.844,0.537,1.006,0.715,0.345,0.590,0.558,��쓌,2.0,��
2022/07/19,03:50,0.594,0.844,0.538,1.004,0.714,0.344,0.591,0.558,��쓌,1.9,��
2022/07/19,04:00,0.595,0.845,0.539,1.006,0.715,0.344,0.591,0.559,��쓌,1.4,��
2022/07/19,04:10,0.594,0.845,0.540,1.007,0.714,0.345,0.591,0.560,��쓌,1.5,��
2022/07/19,04:20,0.596,0.846,0.540,1.006,0.715,0.346,0.592,0.557,��쓌,1.2,��
2022/07/19,04:30,0.593,0.844,0.541,1.004,0.713,0.345,0.591,0.558,��쓌,1.7,��
2022/07/19,04:40,0.594,0.843,0.539,1.005,0.716,0.345,0.592,0.558,��쓌,2.0,��
2022/07/19,04:50,0.595,0.844,0.540,1.005,0.715,0.345,0.591,0.557,��쓌,1.7,��
2022/07/19,05:00,0.594,0.844,0.540,1.004,0.714,0.344,0.591,0.558,��쓌,1.2,��
2022/07/19,05:10,0.595,0.845,0.540,1.003,0.716,0.344,0.589,0.559,��쓌,0.9,��
2022/07/19,05:20,0.593,0.844,0.538,1.004,0.715,0.346,0.592,0.558,��쓌,2.3,��
2022/07/19,05:30,0.594,0.847,0.540,1.005,0.715,0.344,0.592,0.558,��,2.6,��
2022/07/19,05:40,0.596,0.845,0.540,1.005,0.715,0.344,0.591,0.559,��,1.5,��
2022/07/19,05:50,0.594,0.845,0.541,1.005,0.715,0.345,0.591,0.558,��쐼,1.4,��
2022/07/19,06:00,0.595,0.843,0.538,1.004,0.717,0.344,0.592,0.558,�쐼,1.7,��
2022/07/19,06:10,0.595,0.846,0.540,1.005,0.716,0.343,0.592,0.560,��쐼,1.7,��
2022/07/19,06:20,0.596,0.847,0.538,1.005,0.714,0.345,0.592,0.558,��쐼,1.5,��
2022/07/19,06:30,0.596,0.847,0.540,1.005,0.714,0.347,0.592,0.557,��쐼,0.9,��
2022/07/19,06:40,0.596,0.846,0.540,1.005,0.715,0.345,0.592,0.557,��,1.4,��
2022/07/19,06:50,0.595,0.845,0.539,1.006,0.715,0.344,0.593,0.557,��쐼,1.1,��
2022/07/19,07:00,0.597,0.845,0.538,1.005,0.716,0.346,0.592,0.558,�k�k��,0.9,��
2022/07/19,07:10,0.595,0.848,0.540,1.003,0.715,0.345,0.593,0.558,-,CALM,��
2022/07/19,07:20,0.597,0.845,0.540,1.006,0.714,0.345,0.594,0.555,��쓌,0.6,��
2022/07/19,07:30,0.595,0.847,0.540,1.005,0.715,0.345,0.593,0.559,��,0.6,��
2022/07/19,07:40,0.595,0.845,0.541,1.005,0.716,0.345,0.593,0.559,��쓌,1.1,��
2022/07/19,07:50,0.597,0.845,0.541,1.005,0.716,0.344,0.594,0.559,��쓌,0.6,��
2022/07/19,08:00,0.596,0.846,0.539,1.006,0.716,0.343,0.593,0.558,�쓌,0.9,��
2022/07/19,08:10,0.595,0.846,0.541,1.006,0.714,0.343,0.593,0.559,-,CALM,��
2022/07/19,08:20,0.595,0.845,0.541,1.006,0.716,0.345,0.594,0.558,�k�k��,0.9,��
2022/07/19,08:30,0.597,0.845,0.540,1.007,0.716,0.346,0.592,0.557,��,1.2,��
2022/07/19,08:40,0.598,0.843,0.539,1.005,0.716,0.345,0.592,0.558,�쓌,1.4,��
2022/07/19,08:50,0.595,0.841,0.539,1.006,0.715,0.344,0.593,0.555,�쓌,1.7,��
2022/07/19,09:00,0.596,0.840,0.539,1.007,0.716,0.345,0.593,0.557,�쓌,1.7,��
2022/07/19,09:10,0.596,0.839,0.537,1.006,0.717,0.345,0.593,0.555,�쓌,1.4,��
2022/07/19,09:20,0.597,0.838,0.537,1.005,0.715,0.345,0.593,0.556,���쓌,1.7,��
2022/07/19,09:30,0.596,0.839,0.538,1.006,0.715,0.344,0.593,0.556,���쓌,0.9,��
2022/07/19,09:40,0.597,0.838,0.539,1.006,0.718,0.344,0.593,0.555,��,0.8,�L
2022/07/19,09:50,0.595,0.840,0.540,1.007,0.717,0.342,0.591,0.556,�k��,1.2,�L
2022/07/19,10:00,0.594,0.839,0.539,1.008,0.717,0.345,0.593,0.555,�k�k��,2.0,�L
2022/07/19,10:10,0.596,0.833,0.539,1.005,0.715,0.344,0.592,0.557,�k��,2.0,�L
2022/07/19,10:20,0.596,0.833,0.531,1.004,0.717,0.345,0.594,0.556,���k��,1.1,�L
2022/07/19,10:30,0.596,0.842,0.533,1.006,0.717,0.347,0.593,0.558,���쓌,0.8,�L
2022/07/19,10:40,0.597,0.842,0.537,1.008,0.715,0.346,0.594,0.558,�k��,1.2,�L
2022/07/19,10:50,0.596,0.836,0.543,1.007,0.718,0.346,0.594,0.556,���k��,1.2,�L
2022/07/19,11:00,0.598,0.842,0.543,1.007,0.719,0.346,0.593,0.557,���쓌,1.4,�L
2022/07/19,11:10,0.597,0.844,0.542,1.006,0.718,0.346,0.593,0.558,���쓌,1.2,�L
2022/07/19,11:20,0.597,0.843,0.542,1.009,0.719,0.347,0.595,0.558,���쓌,1.7,�L
2022/07/19,11:30,0.597,0.845,0.544,1.007,0.718,0.347,0.592,0.559,���쓌,1.5,�L
2022/07/19,11:40,0.599,0.843,0.544,1.007,0.718,0.347,0.594,0.557,��,1.2,�L
2022/07/19,11:50,0.597,0.843,0.544,1.005,0.715,0.345,0.592,0.557,���k��,1.4,�L
2022/07/19,12:00,0.598,0.842,0.542,1.007,0.715,0.346,0.593,0.558,��,0.6,�L
2022/07/19,12:10,0.597,0.844,0.540,1.008,0.717,0.346,0.593,0.559,�k��,0.9,�L
2022/07/19,12:20,0.597,0.845,0.541,1.004,0.717,0.346,0.594,0.557,�k��,0.6,�L
2022/07/19,12:30,0.596,0.845,0.542,1.005,0.717,0.346,0.593,0.558,�k��,0.6,�L
2022/07/19,12:40,0.598,0.847,0.542,1.005,0.717,0.347,0.592,0.558,�쓌,1.2,�L
2022/07/19,12:50,0.597,0.844,0.543,1.005,0.717,0.346,0.592,0.558,��,1.5,�L
2022/07/19,13:00,0.597,0.846,0.543,1.006,0.717,0.346,0.592,0.558,��,1.2,�L
2022/07/19,13:10,0.599,0.846,0.542,1.006,0.719,0.348,0.594,0.558,�k�k��,1.1,�L
2022/07/19,13:20,0.598,0.844,0.543,1.006,0.718,0.347,0.593,0.558,���k��,1.4,�L
2022/07/19,13:30,0.597,0.843,0.543,1.006,0.717,0.346,0.595,0.558,�k�k��,2.0,�L
2022/07/19,13:40,0.597,0.844,0.542,1.006,0.718,0.346,0.594,0.558,�k�k��,2.0,�L
2022/07/19,13:50,0.594,0.842,0.541,1.006,0.716,0.346,0.592,0.558,�k��,1.7,�L
2022/07/19,14:00,0.595,0.839,0.541,1.004,0.716,0.345,0.591,0.558,�k,1.2,�L
2022/07/19,14:10,0.594,0.841,0.542,1.005,0.717,0.344,0.592,0.556,�k,1.2,�L
2022/07/19,14:20,0.594,0.840,0.539,1.004,0.715,0.345,0.593,0.558,-,CALM,�L
2022/07/19,14:30,0.592,0.839,0.540,1.004,0.717,0.344,0.594,0.556,-,CALM,�L
2022/07/19,14:40,0.596,0.839,0.540,1.005,0.715,0.344,0.593,0.555,�k,0.6,�L
2022/07/19,14:50,0.594,0.839,0.540,1.006,0.717,0.345,0.593,0.557,�k�k��,0.6,�L
2022/07/19,15:00,0.597,0.841,0.541,1.003,0.718,0.346,0.591,0.557,���k��,0.6,�L
2022/07/19,15:10,0.594,0.840,0.541,1.003,0.715,0.345,0.594,0.556,�k��,0.8,�L
2022/07/19,15:20,0.593,0.839,0.539,1.004,0.714,0.346,0.594,0.558,��,1.2,�L
2022/07/19,15:30,0.593,0.840,0.539,1.005,0.714,0.345,0.594,0.556,���k��,1.7,�L
2022/07/19,15:40,0.594,0.840,0.541,1.004,0.714,0.346,0.595,0.556,���쐼,1.2,�L
2022/07/19,15:50,0.593,0.840,0.540,1.005,0.714,0.345,0.594,0.556,�k��,1.4,�L
2022/07/19,16:00,0.597,0.842,0.540,1.004,0.715,0.347,0.594,0.558,�k��,1.5,�L
2022/07/19,16:10,0.592,0.842,0.542,1.004,0.716,0.345,0.596,0.557,�k�k��,2.5,�L
2022/07/19,16:20,0.594,0.842,0.540,1.004,0.715,0.345,0.595,0.557,�k�k��,2.0,��
2022/07/19,16:30,0.591,0.843,0.542,1.005,0.715,0.346,0.594,0.557,�k�k��,2.6,��
2022/07/19,16:40,0.590,0.843,0.541,1.005,0.716,0.345,0.594,0.558,�k�k��,1.7,��
2022/07/19,16:50,0.592,0.841,0.541,1.006,0.714,0.345,0.594,0.557,�k�k��,1.2,��
2022/07/19,17:00,0.596,0.844,0.539,1.005,0.715,0.345,0.594,0.559,�k��,1.5,��
2022/07/19,17:10,0.593,0.841,0.541,1.004,0.714,0.344,0.594,0.557,�k��,2.0,�L
2022/07/19,17:20,0.591,0.843,0.540,1.004,0.714,0.345,0.594,0.558,�k�k��,2.5,�L
2022/07/19,17:30,0.592,0.843,0.540,1.003,0.714,0.344,0.596,0.557,�k,1.5,��
2022/07/19,17:40,0.592,0.842,0.540,1.004,0.714,0.344,0.592,0.557,�k�k��,1.2,�L
2022/07/19,17:50,0.591,0.843,0.540,1.006,0.714,0.344,0.593,0.557,�k,1.9,�L
2022/07/19,18:00,0.592,0.843,0.541,1.005,0.715,0.344,0.594,0.557,�k,2.3,�L
2022/07/19,18:10,0.591,0.843,0.541,1.006,0.714,0.346,0.593,0.557,�k,3.2,��
2022/07/19,18:20,0.592,0.842,0.539,1.006,0.715,0.345,0.593,0.557,�k,2.6,��
2022/07/19,18:30,0.592,0.841,0.540,1.006,0.713,0.345,0.593,0.556,�k�k��,2.6,��
2022/07/19,18:40,0.590,0.841,0.539,1.005,0.714,0.343,0.592,0.557,�k,3.7,��
2022/07/19,18:50,0.590,0.841,0.538,1.005,0.713,0.344,0.592,0.555,�k,5.1,�L
2022/07/19,19:00,0.591,0.842,0.539,1.002,0.714,0.344,0.592,0.556,�k,5.3,��
2022/07/19,19:10,0.589,0.840,0.537,1.005,0.714,0.342,0.592,0.556,�k,4.5,��
2022/07/19,19:20,0.588,0.840,0.538,1.006,0.712,0.343,0.592,0.555,�k,3.9,��
2022/07/19,19:30,0.589,0.843,0.538,1.005,0.712,0.344,0.591,0.555,�k,3.3,��
2022/07/19,19:40,0.591,0.843,0.538,1.003,0.713,0.343,0.593,0.557,�k,2.5,��
2022/07/19,19:50,0.588,0.840,0.538,1.004,0.712,0.343,0.591,0.556,�k,2.0,��
2022/07/19,20:00,0.589,0.842,0.538,1.003,0.714,0.342,0.591,0.555,�k,2.3,��
2022/07/19,20:10,0.589,0.843,0.538,1.004,0.713,0.342,0.590,0.556,�k,2.3,��
2022/07/19,20:20,0.588,0.843,0.538,1.004,0.712,0.342,0.590,0.556,�k,3.0,��
2022/07/19,20:30,0.588,0.841,0.539,1.002,0.713,0.343,0.591,0.556,�k,3.3,��
2022/07/19,20:40,0.588,0.841,0.537,1.005,0.714,0.343,0.590,0.555,�k�k��,2.3,��
2022/07/19,20:50,0.589,0.841,0.536,1.005,0.713,0.342,0.590,0.557,�k,2.2,��
2022/07/19,21:00,0.588,0.840,0.537,1.005,0.714,0.343,0.592,0.556,�k,2.0,��
2022/07/19,21:10,0.588,0.840,0.537,1.005,0.711,0.341,0.589,0.556,�k,2.9,��
2022/07/19,21:20,0.587,0.840,0.537,1.005,0.711,0.343,0.591,0.555,�k,2.3,��
2022/07/19,21:30,0.588,0.840,0.538,1.004,0.714,0.342,0.591,0.556,�k�k��,1.2,��
2022/07/19,21:40,0.587,0.841,0.535,1.006,0.714,0.341,0.591,0.555,�k,0.9,��
2022/07/19,21:50,0.589,0.840,0.537,1.002,0.713,0.343,0.589,0.556,�k,1.7,��
2022/07/19,22:00,0.588,0.840,0.535,1.004,0.711,0.343,0.590,0.556,�k�k��,1.7,��
2022/07/19,22:10,0.587,0.842,0.536,1.003,0.713,0.343,0.589,0.556,�k,0.9,��
2022/07/19,22:20,0.589,0.840,0.538,1.002,0.713,0.342,0.590,0.555,�k�k��,0.9,��
2022/07/19,22:30,0.589,0.840,0.538,1.004,0.713,0.342,0.590,0.555,�k,1.5,��
2022/07/19,22:40,0.590,0.840,0.537,1.005,0.712,0.343,0.590,0.555,�k�k��,1.4,��
2022/07/19,22:50,0.589,0.842,0.538,1.006,0.713,0.342,0.589,0.556,�k�k��,1.2,��
2022/07/19,23:00,0.590,0.840,0.537,1.006,0.714,0.343,0.589,0.556,�k�k��,1.2,��
2022/07/19,23:10,0.588,0.840,0.538,1.003,0.712,0.342,0.589,0.556,�k,0.9,��
2022/07/19,23:20,0.589,0.841,0.539,1.005,0.714,0.343,0.590,0.555,�k,1.1,��
2022/07/19,23:30,0.587,0.841,0.538,1.004,0.715,0.343,0.591,0.555,�k,1.1,��
2022/07/19,23:40,0.590,0.840,0.538,1.004,0.715,0.343,0.590,0.555,�k��,0.6,��
2022/07/19,23:50,0.588,0.841,0.537,1.003,0.714,0.344,0.590,0.558,��쓌,1.2,��
